GBB374 FACT-FALE

Flight info

Callsign GBB374
Flight time 1h 55m
Altitude 37000
Route OKTED UQ12 DUNSA DUNSA1B
Aircraft A320/M-SDE3FGHIRWY/LB1

Departure

Time 2026-05-05 12:16
Airport Cape Town International Airport (FACT)

Arrival

Time 2026-05-05 14:12
Airport King Shaka International Airport (FALE)
Time Latitude Longitude Altitude Speed Heading
2026-05-05 11:55 -33.97113 18.59868 157 ft 0 kts 255°
2026-05-05 12:06 -33.97109 18.59890 157 ft 4 kts 268°
2026-05-05 12:06 -33.97109 18.59911 157 ft 4 kts 275°
2026-05-05 12:07 -33.97102 18.59950 157 ft 4 kts 230°
2026-05-05 12:07 -33.97092 18.59961 157 ft 4 kts 174°
2026-05-05 12:07 -33.97072 18.59955 157 ft 1 kts 165°
2026-05-05 12:07 -33.97071 18.59955 157 ft 0 kts 165°
2026-05-05 12:10 -33.97086 18.59960 157 ft 6 kts 166°
2026-05-05 12:11 -33.97155 18.59972 157 ft 13 kts 166°
2026-05-05 12:11 -33.97251 18.60001 157 ft 15 kts 166°
2026-05-05 12:11 -33.97364 18.60037 157 ft 18 kts 165°
2026-05-05 12:11 -33.97493 18.60084 157 ft 21 kts 157°
2026-05-05 12:12 -33.97633 18.60155 157 ft 23 kts 160°
2026-05-05 12:12 -33.97780 18.60218 157 ft 23 kts 160°
2026-05-05 12:12 -33.97938 18.60286 157 ft 25 kts 161°
2026-05-05 12:12 -33.98111 18.60361 157 ft 26 kts 160°
2026-05-05 12:13 -33.98281 18.60433 157 ft 27 kts 160°
2026-05-05 12:13 -33.98458 18.60508 157 ft 28 kts 161°
2026-05-05 12:13 -33.98629 18.60582 157 ft 21 kts 160°
2026-05-05 12:13 -33.98754 18.60637 156 ft 16 kts 159°
2026-05-05 12:14 -33.98801 18.60726 156 ft 14 kts 71°
2026-05-05 12:14 -33.98789 18.60773 155 ft 0 kts 73°
2026-05-05 12:15 -33.98782 18.60802 156 ft 8 kts 73°
2026-05-05 12:15 -33.98738 18.60874 155 ft 13 kts 14°
2026-05-05 12:16 -33.98617 18.60838 152 ft 39 kts 345°
2026-05-05 12:16 -33.98037 18.60654 154 ft 128 kts 345°
2026-05-05 12:16 -33.96982 18.60316 393 ft 171 kts 345°
2026-05-05 12:16 -33.95834 18.59925 1344 ft 174 kts 341°
2026-05-05 12:17 -33.94606 18.59512 2094 ft 194 kts 342°
2026-05-05 12:17 -33.93237 18.59025 2501 ft 217 kts 341°
2026-05-05 12:17 -33.91708 18.58468 2979 ft 241 kts 342°
2026-05-05 12:17 -33.90038 18.57845 3614 ft 258 kts 342°
2026-05-05 12:18 -33.88305 18.57186 4526 ft 264 kts 342°
2026-05-05 12:18 -33.86545 18.56502 5456 ft 268 kts 342°
2026-05-05 12:18 -33.84750 18.55802 6379 ft 273 kts 342°
2026-05-05 12:18 -33.82951 18.55102 7215 ft 278 kts 342°
2026-05-05 12:19 -33.81063 18.54390 8080 ft 283 kts 346°
2026-05-05 12:19 -33.79115 18.54265 8891 ft 288 kts 10°
2026-05-05 12:19 -33.77247 18.55122 9725 ft 291 kts 36°
2026-05-05 12:19 -33.75843 18.56850 10502 ft 291 kts 61°
2026-05-05 12:20 -33.75137 18.59169 10914 ft 307 kts 85°
2026-05-05 12:20 -33.75387 18.61770 11138 ft 326 kts 112°
2026-05-05 12:20 -33.76500 18.64217 11498 ft 340 kts 122°
2026-05-05 12:20 -33.77749 18.66662 12165 ft 345 kts 122°
2026-05-05 12:21 -33.79012 18.69134 12900 ft 349 kts 122°
2026-05-05 12:21 -33.80282 18.71632 13655 ft 352 kts 122°
2026-05-05 12:21 -33.81557 18.74158 14336 ft 355 kts 122°
2026-05-05 12:21 -33.82836 18.76706 14995 ft 357 kts 121°
2026-05-05 12:22 -33.84121 18.79278 15645 ft 360 kts 121°
2026-05-05 12:22 -33.85415 18.81869 16291 ft 362 kts 121°
2026-05-05 12:22 -33.86716 18.84480 16953 ft 365 kts 121°
2026-05-05 12:22 -33.88028 18.87113 17615 ft 368 kts 121°
2026-05-05 12:23 -33.89349 18.89761 18290 ft 371 kts 121°
2026-05-05 12:23 -33.90683 18.92431 18887 ft 374 kts 121°
2026-05-05 12:23 -33.92024 18.95120 19510 ft 376 kts 121°
2026-05-05 12:23 -33.93374 18.97828 20115 ft 378 kts 121°
2026-05-05 12:24 -33.94733 19.00555 20687 ft 381 kts 121°
2026-05-05 12:24 -33.96101 19.03302 21236 ft 383 kts 122°
2026-05-05 12:24 -33.97476 19.06068 21774 ft 387 kts 122°
2026-05-05 12:24 -33.98859 19.08859 22264 ft 390 kts 121°
2026-05-05 12:25 -34.00252 19.11674 22788 ft 393 kts 122°
2026-05-05 12:25 -34.01637 19.14469 23293 ft 395 kts 122°
2026-05-05 12:25 -34.03053 19.17328 23746 ft 399 kts 122°
2026-05-05 12:25 -34.04479 19.20209 24146 ft 401 kts 121°
2026-05-05 12:26 -34.05914 19.23112 24538 ft 404 kts 121°
2026-05-05 12:26 -34.07356 19.26035 24922 ft 407 kts 121°
2026-05-05 12:26 -34.08809 19.28983 25297 ft 410 kts 121°
2026-05-05 12:26 -34.10268 19.31949 25662 ft 413 kts 121°
2026-05-05 12:27 -34.11739 19.34939 26013 ft 416 kts 121°
2026-05-05 12:27 -34.13222 19.37946 26383 ft 418 kts 121°
2026-05-05 12:27 -34.14714 19.40973 26753 ft 421 kts 121°
2026-05-05 12:27 -34.16214 19.44030 27116 ft 424 kts 121°
2026-05-05 12:28 -34.17721 19.47105 27472 ft 427 kts 121°
2026-05-05 12:28 -34.19235 19.50205 27811 ft 430 kts 120°
2026-05-05 12:28 -34.20498 19.53490 28170 ft 433 kts 110°
2026-05-05 12:28 -34.21294 19.57012 28525 ft 437 kts 101°
2026-05-05 12:29 -34.21600 19.60678 28856 ft 441 kts 91°
2026-05-05 12:29 -34.21437 19.64396 29184 ft 445 kts 86°
2026-05-05 12:29 -34.21180 19.68131 29518 ft 447 kts 86°
2026-05-05 12:29 -34.20924 19.71873 29992 ft 447 kts 86°
2026-05-05 12:30 -34.20668 19.75610 30400 ft 446 kts 86°
2026-05-05 12:30 -34.20414 19.79297 30760 ft 447 kts 86°
2026-05-05 12:30 -34.20156 19.83038 31111 ft 447 kts 86°
2026-05-05 12:30 -34.19897 19.86786 31467 ft 448 kts 86°
2026-05-05 12:31 -34.19639 19.90539 31823 ft 449 kts 86°
2026-05-05 12:31 -34.19379 19.94299 32201 ft 449 kts 85°
2026-05-05 12:31 -34.19116 19.98064 32575 ft 450 kts 85°
2026-05-05 12:31 -34.18851 20.01828 32963 ft 450 kts 85°
2026-05-05 12:32 -34.18584 20.05599 33353 ft 451 kts 85°
2026-05-05 12:32 -34.18314 20.09369 33714 ft 452 kts 85°
2026-05-05 12:32 -34.18042 20.13149 34068 ft 453 kts 84°
2026-05-05 12:32 -34.17708 20.16933 34370 ft 453 kts 79°
2026-05-05 12:33 -34.16953 20.20621 34675 ft 453 kts 70°
2026-05-05 12:33 -34.15751 20.24135 34968 ft 453 kts 65°
2026-05-05 12:33 -34.14450 20.27604 35260 ft 454 kts 65°
2026-05-05 12:33 -34.13153 20.31076 35561 ft 454 kts 65°
2026-05-05 12:34 -34.11858 20.34549 35846 ft 454 kts 65°
2026-05-05 12:34 -34.10560 20.38025 36145 ft 454 kts 65°
2026-05-05 12:34 -34.09262 20.41501 36413 ft 455 kts 65°
2026-05-05 12:34 -34.07981 20.44930 36676 ft 455 kts 65°
2026-05-05 12:35 -34.06677 20.48406 36921 ft 455 kts 64°
2026-05-05 12:35 -34.05368 20.51892 37004 ft 457 kts 64°
2026-05-05 12:35 -34.02738 20.58898 37014 ft 459 kts 64°
2026-05-05 12:36 -34.00100 20.65907 37014 ft 459 kts 64°
2026-05-05 12:36 -33.97457 20.72907 37020 ft 459 kts 64°
2026-05-05 12:37 -33.94816 20.79912 37016 ft 459 kts 64°
2026-05-05 12:37 -33.92191 20.86862 37016 ft 459 kts 64°
2026-05-05 12:38 -33.89538 20.93853 37029 ft 459 kts 63°
2026-05-05 12:38 -33.86876 21.00848 37034 ft 460 kts 63°
2026-05-05 12:39 -33.84302 21.07589 37038 ft 460 kts 63°
2026-05-05 12:39 -33.81633 21.14576 37046 ft 460 kts 63°
2026-05-05 12:40 -33.78971 21.21563 37047 ft 459 kts 63°
2026-05-05 12:40 -33.76302 21.28534 37047 ft 459 kts 62°
2026-05-05 12:41 -33.73624 21.35487 37047 ft 458 kts 62°
2026-05-05 12:41 -33.70941 21.42437 37041 ft 458 kts 62°
2026-05-05 12:42 -33.68264 21.49378 37038 ft 458 kts 62°
2026-05-05 12:42 -33.65588 21.56308 37031 ft 458 kts 62°
2026-05-05 12:43 -33.62929 21.63191 37027 ft 457 kts 61°
2026-05-05 12:43 -33.60243 21.70105 37026 ft 457 kts 61°
2026-05-05 12:44 -33.57554 21.77013 37027 ft 457 kts 61°
2026-05-05 12:44 -33.54858 21.83918 37023 ft 457 kts 61°
2026-05-05 12:45 -33.52160 21.90819 37022 ft 457 kts 60°
2026-05-05 12:45 -33.49465 21.97714 37018 ft 457 kts 60°
2026-05-05 12:46 -33.46769 22.04603 37015 ft 456 kts 60°
2026-05-05 12:46 -33.44069 22.11474 37012 ft 456 kts 60°
2026-05-05 12:47 -33.41361 22.18332 37008 ft 456 kts 59°
2026-05-05 12:47 -33.38656 22.25192 37007 ft 456 kts 59°
2026-05-05 12:48 -33.35949 22.32049 37010 ft 456 kts 59°
2026-05-05 12:48 -33.33235 22.38906 37007 ft 456 kts 59°
2026-05-05 12:49 -33.30663 22.45844 37001 ft 458 kts 62°
2026-05-05 12:49 -33.28383 22.52985 36995 ft 460 kts 63°
2026-05-05 12:50 -33.26148 22.60153 36997 ft 460 kts 63°
2026-05-05 12:50 -33.23848 22.67228 36993 ft 459 kts 62°
2026-05-05 12:51 -33.21499 22.74312 36989 ft 459 kts 62°
2026-05-05 12:51 -33.19148 22.81386 36985 ft 458 kts 61°
2026-05-05 12:52 -33.16799 22.88465 36981 ft 459 kts 61°
2026-05-05 12:52 -33.14450 22.95542 36980 ft 459 kts 61°
2026-05-05 12:53 -33.12108 23.02620 36976 ft 459 kts 60°
2026-05-05 12:53 -33.09766 23.09703 36981 ft 459 kts 60°
2026-05-05 12:54 -33.06242 23.20312 36980 ft 459 kts 60°
2026-05-05 12:55 -33.03885 23.27381 36978 ft 459 kts 60°
2026-05-05 12:55 -33.01546 23.34395 36977 ft 458 kts 59°
2026-05-05 12:56 -32.99185 23.41441 36967 ft 458 kts 59°
2026-05-05 12:56 -32.96820 23.48476 36967 ft 458 kts 59°
2026-05-05 12:57 -32.94457 23.55509 36959 ft 457 kts 59°
2026-05-05 12:57 -32.92088 23.62538 36961 ft 457 kts 58°
2026-05-05 12:58 -32.89715 23.69558 36965 ft 457 kts 58°
2026-05-05 12:58 -32.87347 23.76561 36963 ft 456 kts 58°
2026-05-05 12:59 -32.84977 23.83557 36966 ft 456 kts 58°
2026-05-05 12:59 -32.82609 23.90551 36960 ft 455 kts 58°
2026-05-05 13:00 -32.79456 23.99839 36965 ft 455 kts 57°
2026-05-05 13:01 -32.74691 24.13757 36969 ft 454 kts 57°
2026-05-05 13:01 -32.71919 24.21838 36968 ft 455 kts 57°
2026-05-05 13:02 -32.69918 24.27659 36970 ft 454 kts 57°
2026-05-05 13:02 -32.67527 24.34597 36967 ft 454 kts 56°
2026-05-05 13:03 -32.65136 24.41524 36961 ft 453 kts 56°
2026-05-05 13:03 -32.62765 24.48399 36960 ft 453 kts 56°
2026-05-05 13:04 -32.60373 24.55309 36959 ft 452 kts 56°
2026-05-05 13:04 -32.57972 24.62204 36955 ft 452 kts 56°
2026-05-05 13:05 -32.55575 24.69099 36959 ft 452 kts 56°
2026-05-05 13:05 -32.53185 24.75997 36959 ft 452 kts 55°
2026-05-05 13:06 -32.50779 24.82881 36950 ft 452 kts 55°
2026-05-05 13:06 -32.48369 24.89749 36945 ft 451 kts 55°
2026-05-05 13:07 -32.45960 24.96607 36943 ft 451 kts 54°
2026-05-05 13:07 -32.43547 25.03463 36937 ft 451 kts 54°
2026-05-05 13:08 -32.41134 25.10317 36927 ft 451 kts 54°
2026-05-05 13:08 -32.38719 25.17171 36932 ft 451 kts 54°
2026-05-05 13:09 -32.36299 25.24015 36918 ft 451 kts 54°
2026-05-05 13:09 -32.33885 25.30808 36921 ft 451 kts 54°
2026-05-05 13:10 -32.31459 25.37642 36902 ft 451 kts 54°
2026-05-05 13:10 -32.29024 25.44479 36921 ft 452 kts 54°
2026-05-05 13:11 -32.26593 25.51320 36918 ft 452 kts 54°
2026-05-05 13:11 -32.24150 25.58170 36927 ft 452 kts 53°
2026-05-05 13:12 -32.21697 25.65003 36923 ft 452 kts 53°
2026-05-05 13:12 -32.19243 25.71838 36919 ft 452 kts 53°
2026-05-05 13:13 -32.16798 25.78673 36910 ft 452 kts 53°
2026-05-05 13:13 -32.14335 25.85493 36900 ft 452 kts 53°
2026-05-05 13:14 -32.11861 25.92310 36894 ft 452 kts 53°
2026-05-05 13:14 -32.09393 25.99144 36888 ft 453 kts 53°
2026-05-05 13:15 -32.06925 26.05987 36886 ft 454 kts 53°
2026-05-05 13:15 -32.04442 26.12832 36875 ft 454 kts 53°
2026-05-05 13:16 -32.01950 26.19665 36869 ft 454 kts 53°
2026-05-05 13:16 -31.99453 26.26508 36863 ft 455 kts 53°
2026-05-05 13:17 -31.96946 26.33353 36853 ft 455 kts 53°
2026-05-05 13:17 -31.94444 26.40159 36851 ft 456 kts 53°
2026-05-05 13:18 -31.91914 26.47017 36848 ft 457 kts 53°
2026-05-05 13:18 -31.89380 26.53877 36855 ft 458 kts 53°
2026-05-05 13:19 -31.86836 26.60749 36852 ft 458 kts 53°
2026-05-05 13:19 -31.84288 26.67625 36850 ft 459 kts 53°
2026-05-05 13:20 -31.81730 26.74507 36855 ft 460 kts 52°
2026-05-05 13:20 -31.79160 26.81388 36864 ft 460 kts 52°
2026-05-05 13:21 -31.76598 26.88283 36875 ft 461 kts 53°
2026-05-05 13:21 -31.74042 26.95195 36875 ft 461 kts 53°
2026-05-05 13:22 -31.71471 27.02097 36874 ft 461 kts 53°
2026-05-05 13:22 -31.68891 27.08994 36876 ft 462 kts 53°
2026-05-05 13:23 -31.66308 27.15899 36857 ft 461 kts 53°
2026-05-05 13:23 -31.63725 27.22799 36862 ft 462 kts 52°
2026-05-05 13:24 -31.61131 27.29700 36865 ft 462 kts 53°
2026-05-05 13:24 -31.58528 27.36604 36870 ft 463 kts 53°
2026-05-05 13:25 -31.55943 27.43466 36868 ft 463 kts 53°
2026-05-05 13:25 -31.53338 27.50367 36865 ft 463 kts 53°
2026-05-05 13:26 -31.50720 27.57270 36867 ft 463 kts 53°
2026-05-05 13:26 -31.48095 27.64177 36868 ft 464 kts 53°
2026-05-05 13:27 -31.45472 27.71095 36874 ft 465 kts 53°
2026-05-05 13:27 -31.42842 27.78007 36876 ft 465 kts 53°
2026-05-05 13:28 -31.40203 27.84918 36876 ft 465 kts 53°
2026-05-05 13:28 -31.37548 27.91830 36875 ft 466 kts 53°
2026-05-05 13:29 -31.34878 27.98735 36876 ft 466 kts 53°
2026-05-05 13:29 -31.32191 28.05638 36885 ft 466 kts 52°
2026-05-05 13:30 -31.29497 28.12547 36877 ft 467 kts 53°
2026-05-05 13:30 -31.26812 28.19477 36871 ft 468 kts 53°
2026-05-05 13:31 -31.24151 28.26373 36876 ft 469 kts 53°
2026-05-05 13:31 -31.21465 28.33325 36876 ft 470 kts 53°
2026-05-05 13:32 -31.18774 28.40283 36872 ft 470 kts 53°
2026-05-05 13:32 -31.16065 28.47242 36887 ft 471 kts 52°
2026-05-05 13:33 -31.13348 28.54204 36875 ft 471 kts 52°
2026-05-05 13:33 -31.10632 28.61164 36874 ft 471 kts 52°
2026-05-05 13:34 -31.07911 28.68119 36869 ft 472 kts 53°
2026-05-05 13:34 -31.05180 28.75081 36870 ft 473 kts 52°
2026-05-05 13:35 -31.02437 28.82054 36887 ft 473 kts 52°
2026-05-05 13:35 -30.99692 28.89023 36889 ft 473 kts 52°
2026-05-05 13:36 -30.96944 28.96004 36882 ft 474 kts 52°
2026-05-05 13:36 -30.94196 29.02991 36879 ft 475 kts 53°
2026-05-05 13:37 -30.91443 29.09987 36878 ft 476 kts 53°
2026-05-05 13:37 -30.88674 29.16977 36880 ft 476 kts 52°
2026-05-05 13:38 -30.85901 29.23965 36879 ft 476 kts 52°
2026-05-05 13:38 -30.83119 29.30964 36886 ft 477 kts 52°
2026-05-05 13:39 -30.80354 29.37921 36886 ft 477 kts 52°
2026-05-05 13:39 -30.77555 29.44922 36890 ft 477 kts 52°
2026-05-05 13:40 -30.74756 29.51929 36892 ft 478 kts 52°
2026-05-05 13:40 -30.71958 29.58938 36891 ft 478 kts 52°
2026-05-05 13:41 -30.69152 29.65950 36892 ft 478 kts 52°
2026-05-05 13:41 -30.66328 29.72958 36898 ft 478 kts 52°
2026-05-05 13:42 -30.63508 29.79952 36894 ft 478 kts 52°
2026-05-05 13:42 -30.60711 29.86901 36899 ft 478 kts 52°
2026-05-05 13:43 -30.57883 29.93897 36898 ft 479 kts 52°
2026-05-05 13:43 -30.55045 30.00887 36903 ft 476 kts 50°
2026-05-05 13:44 -30.53351 30.04091 36900 ft 457 kts 40°
2026-05-05 13:44 -30.51419 30.07001 36904 ft 455 kts 39°
2026-05-05 13:44 -30.47534 30.12820 36902 ft 456 kts 39°
2026-05-05 13:45 -30.43655 30.18632 36893 ft 456 kts 39°
2026-05-05 13:45 -30.39778 30.24450 36901 ft 456 kts 39°
2026-05-05 13:46 -30.35902 30.30262 36900 ft 456 kts 39°
2026-05-05 13:46 -30.32024 30.36057 36897 ft 456 kts 39°
2026-05-05 13:47 -30.28194 30.41786 36442 ft 448 kts 39°
2026-05-05 13:47 -30.26273 30.44665 36026 ft 444 kts 40°
2026-05-05 13:47 -30.24416 30.47442 35623 ft 440 kts 40°
2026-05-05 13:48 -30.22543 30.50221 35224 ft 435 kts 39°
2026-05-05 13:48 -30.20655 30.52930 34829 ft 431 kts 39°
2026-05-05 13:48 -30.18758 30.55584 34402 ft 427 kts 38°
2026-05-05 13:48 -30.16861 30.58203 34017 ft 423 kts 38°
2026-05-05 13:49 -30.14979 30.60795 33567 ft 420 kts 38°
2026-05-05 13:49 -30.13114 30.63376 33089 ft 417 kts 39°
2026-05-05 13:49 -30.11266 30.65950 32612 ft 415 kts 39°
2026-05-05 13:49 -30.09433 30.68510 32154 ft 413 kts 39°
2026-05-05 13:50 -30.07615 30.71057 31728 ft 410 kts 39°
2026-05-05 13:50 -30.05807 30.73590 31445 ft 404 kts 39°
2026-05-05 13:50 -30.04045 30.76065 31319 ft 394 kts 39°
2026-05-05 13:50 -30.02324 30.78485 31196 ft 386 kts 39°
2026-05-05 13:51 -29.99518 30.82412 30979 ft 371 kts 39°
2026-05-05 13:51 -29.97894 30.84677 30864 ft 362 kts 38°
2026-05-05 13:51 -29.96309 30.86886 30738 ft 353 kts 38°
2026-05-05 13:52 -29.94784 30.89013 30565 ft 346 kts 38°
2026-05-05 13:52 -29.93259 30.91132 30287 ft 342 kts 38°
2026-05-05 13:52 -29.91741 30.93236 29960 ft 340 kts 38°
2026-05-05 13:52 -29.90231 30.95323 29588 ft 338 kts 38°
2026-05-05 13:53 -29.88730 30.97398 29234 ft 336 kts 38°
2026-05-05 13:53 -29.87238 30.99462 28866 ft 334 kts 38°
2026-05-05 13:53 -29.85759 31.01513 28533 ft 331 kts 38°
2026-05-05 13:53 -29.84293 31.03549 28194 ft 330 kts 38°
2026-05-05 13:54 -29.82836 31.05574 27863 ft 327 kts 38°
2026-05-05 13:54 -29.81386 31.07583 27536 ft 325 kts 38°
2026-05-05 13:54 -29.79941 31.09577 27200 ft 323 kts 39°
2026-05-05 13:54 -29.78504 31.11560 26885 ft 321 kts 39°
2026-05-05 13:55 -29.77075 31.13525 26567 ft 318 kts 36°
2026-05-05 13:55 -29.75458 31.15139 26246 ft 303 kts 26°
2026-05-05 13:55 -29.73779 31.16603 25930 ft 302 kts 26°
2026-05-05 13:55 -29.72106 31.18057 25625 ft 301 kts 26°
2026-05-05 13:56 -29.70440 31.19503 25323 ft 300 kts 26°
2026-05-05 13:56 -29.68780 31.20945 25031 ft 298 kts 26°
2026-05-05 13:56 -29.67128 31.22381 24749 ft 297 kts 26°
2026-05-05 13:56 -29.65485 31.23807 24468 ft 296 kts 26°
2026-05-05 13:57 -29.63846 31.25227 24179 ft 295 kts 26°
2026-05-05 13:57 -29.62232 31.26627 23705 ft 296 kts 26°
2026-05-05 13:57 -29.60577 31.28059 23075 ft 298 kts 26°
2026-05-05 13:57 -29.58924 31.29494 22523 ft 296 kts 26°
2026-05-05 13:58 -29.57292 31.30917 22009 ft 293 kts 26°
2026-05-05 13:58 -29.55679 31.32325 21512 ft 289 kts 26°
2026-05-05 13:58 -29.54086 31.33718 21025 ft 286 kts 27°
2026-05-05 13:58 -29.52517 31.35105 20549 ft 283 kts 26°
2026-05-05 13:59 -29.49266 31.37872 18817 ft 305 kts 26°
2026-05-05 13:59 -29.47520 31.39308 18071 ft 310 kts 26°
2026-05-05 14:00 -29.44021 31.42172 16741 ft 307 kts 27°
2026-05-05 14:00 -29.42290 31.43584 16123 ft 304 kts 27°
2026-05-05 14:00 -29.40575 31.44974 15517 ft 301 kts 27°
2026-05-05 14:00 -29.38897 31.46330 14952 ft 298 kts 27°
2026-05-05 14:01 -29.37210 31.47696 14370 ft 296 kts 27°
2026-05-05 14:01 -29.35536 31.49052 13812 ft 293 kts 28°
2026-05-05 14:01 -29.33879 31.50394 13200 ft 290 kts 28°
2026-05-05 14:01 -29.32237 31.51724 12587 ft 288 kts 28°
2026-05-05 14:02 -29.30604 31.53040 11983 ft 285 kts 27°
2026-05-05 14:02 -29.28858 31.53977 11392 ft 271 kts
2026-05-05 14:02 -29.27025 31.54117 10824 ft 261 kts 347°
2026-05-05 14:02 -29.25329 31.53510 10244 ft 254 kts 328°
2026-05-05 14:03 -29.23967 31.52272 9657 ft 250 kts 309°
2026-05-05 14:03 -29.23079 31.50572 9026 ft 250 kts 291°
2026-05-05 14:03 -29.22763 31.48612 8421 ft 253 kts 272°
2026-05-05 14:03 -29.23074 31.46619 7839 ft 260 kts 252°
2026-05-05 14:04 -29.24021 31.44837 7518 ft 266 kts 231°
2026-05-05 14:04 -29.25433 31.43444 7210 ft 269 kts 222°
2026-05-05 14:04 -29.26907 31.42122 6896 ft 269 kts 221°
2026-05-05 14:04 -29.28381 31.40806 6617 ft 268 kts 221°
2026-05-05 14:05 -29.29843 31.39501 6498 ft 267 kts 222°
2026-05-05 14:05 -29.31288 31.38208 6339 ft 267 kts 221°
2026-05-05 14:05 -29.32749 31.36899 6115 ft 266 kts 221°
2026-05-05 14:05 -29.34206 31.35591 5875 ft 266 kts 221°
2026-05-05 14:06 -29.35667 31.34280 5674 ft 266 kts 221°
2026-05-05 14:06 -29.37129 31.32965 5520 ft 268 kts 221°
2026-05-05 14:06 -29.38566 31.31599 5330 ft 269 kts 221°
2026-05-05 14:06 -29.40038 31.30274 5021 ft 269 kts 219°
2026-05-05 14:07 -29.41537 31.28980 4683 ft 270 kts 218°
2026-05-05 14:07 -29.43039 31.27684 4318 ft 271 kts 218°
2026-05-05 14:07 -29.44545 31.26380 3964 ft 269 kts 218°
2026-05-05 14:07 -29.46006 31.25113 3620 ft 257 kts 218°
2026-05-05 14:08 -29.47402 31.23903 3294 ft 246 kts 218°
2026-05-05 14:08 -29.48740 31.22742 2980 ft 236 kts 217°
2026-05-05 14:08 -29.50018 31.21632 2684 ft 225 kts 217°
2026-05-05 14:08 -29.51214 31.20593 2410 ft 205 kts 217°
2026-05-05 14:09 -29.52297 31.19652 2127 ft 186 kts 216°
2026-05-05 14:09 -29.53287 31.18792 1893 ft 171 kts 216°
2026-05-05 14:09 -29.54188 31.18009 1699 ft 153 kts 216°
2026-05-05 14:09 -29.55008 31.17297 1491 ft 145 kts 214°
2026-05-05 14:10 -29.55798 31.16611 1310 ft 141 kts 214°
2026-05-05 14:10 -29.56578 31.15934 1124 ft 140 kts 216°
2026-05-05 14:10 -29.57353 31.15260 948 ft 140 kts 217°
2026-05-05 14:10 -29.58127 31.14587 770 ft 139 kts 217°
2026-05-05 14:11 -29.58899 31.13915 590 ft 139 kts 218°
2026-05-05 14:11 -29.59672 31.13243 373 ft 139 kts 219°
2026-05-05 14:11 -29.60413 31.12594 285 ft 120 kts 218°
2026-05-05 14:11 -29.60942 31.12134 281 ft 72 kts 218°
2026-05-05 14:12 -29.61215 31.11897 283 ft 27 kts 217°
2026-05-05 14:12 -29.61313 31.11741 283 ft 24 kts 243°
2026-05-05 14:12 -29.61381 31.11560 281 ft 22 kts 247°
2026-05-05 14:12 -29.61471 31.11428 281 ft 23 kts 217°
2026-05-05 14:13 -29.61604 31.11311 280 ft 26 kts 219°
2026-05-05 14:13 -29.61753 31.11181 280 ft 28 kts 217°
2026-05-05 14:13 -29.61915 31.11039 281 ft 30 kts 219°
2026-05-05 14:13 -29.62052 31.10920 281 ft 20 kts 216°
2026-05-05 14:14 -29.62085 31.10837 283 ft 13 kts 302°
2026-05-05 14:14 -29.62024 31.10745 280 ft 16 kts 307°
2026-05-05 14:14 -29.61982 31.10650 280 ft 12 kts 246°
2026-05-05 14:14 -29.62042 31.10595 280 ft 8 kts 217°
2026-05-05 14:15 -29.62049 31.10550 280 ft 7 kts 306°
2026-05-05 14:15 -29.62030 31.10522 280 ft 1 kts 308°
2026-05-05 14:15 -29.62028 31.10520 280 ft 0 kts 308°